DAL67 KBUF-KPBI

Flight info

Callsign DAL67
Flight time 2h 17m
Altitude 36000
Route JHW RICCS Q103 SLOJO EFFAY Q83 JEVED Q97 KENLL CPTAN3
Aircraft A20N/M-SDE2E3FGHIJ1RWXY/LB2

Departure

Time 2026-04-23 12:38
Airport Buffalo Niagara International Airport (KBUF)

Arrival

Time 2026-04-23 14:55
Airport Palm Beach International Airport (KPBI)
Time Latitude Longitude Altitude Speed Heading
2026-04-23 12:10 42.93637 -78.72906 727 ft 0 kts 309°
2026-04-23 12:29 42.93630 -78.72891 727 ft 4 kts 315°
2026-04-23 12:29 42.93614 -78.72872 728 ft 4 kts 331°
2026-04-23 12:30 42.93594 -78.72860 727 ft 0 kts 337°
2026-04-23 12:33 42.93599 -78.72860 727 ft 3 kts 353°
2026-04-23 12:34 42.93618 -78.72842 728 ft 4 kts 41°
2026-04-23 12:34 42.93638 -78.72816 728 ft 6 kts 49°
2026-04-23 12:34 42.93666 -78.72773 728 ft 8 kts 45°
2026-04-23 12:34 42.93738 -78.72707 729 ft 18 kts 27°
2026-04-23 12:35 42.93869 -78.72635 728 ft 21 kts
2026-04-23 12:35 42.94022 -78.72635 729 ft 25 kts
2026-04-23 12:35 42.94182 -78.72572 728 ft 24 kts 41°
2026-04-23 12:35 42.94318 -78.72391 730 ft 30 kts 44°
2026-04-23 12:36 42.94467 -78.72196 730 ft 29 kts 44°
2026-04-23 12:36 42.94611 -78.72008 731 ft 28 kts 44°
2026-04-23 12:36 42.94747 -78.71830 731 ft 15 kts 43°
2026-04-23 12:36 42.94826 -78.71844 732 ft 12 kts 307°
2026-04-23 12:37 42.94841 -78.71923 733 ft 7 kts 221°
2026-04-23 12:37 42.94741 -78.72049 731 ft 46 kts 224°
2026-04-23 12:37 42.94326 -78.72593 731 ft 119 kts 224°
2026-04-23 12:37 42.93557 -78.73595 808 ft 175 kts 224°
2026-04-23 12:38 42.92643 -78.74806 1318 ft 191 kts 223°
2026-04-23 12:38 42.91647 -78.76115 1901 ft 206 kts 220°
2026-04-23 12:38 42.90598 -78.77488 2629 ft 211 kts 221°
2026-04-23 12:38 42.89451 -78.78799 3274 ft 220 kts 215°
2026-04-23 12:39 42.88096 -78.79846 3863 ft 230 kts 203°
2026-04-23 12:39 42.86484 -78.80546 4311 ft 257 kts 196°
2026-04-23 12:39 42.84712 -78.81246 4926 ft 273 kts 198°
2026-04-23 12:39 42.82873 -78.82028 5735 ft 280 kts 200°
2026-04-23 12:40 42.81013 -78.82899 6600 ft 284 kts 207°
2026-04-23 12:40 42.79175 -78.83876 7390 ft 291 kts 203°
2026-04-23 12:40 42.77246 -78.84786 8203 ft 297 kts 202°
2026-04-23 12:40 42.75270 -78.85690 9019 ft 302 kts 202°
2026-04-23 12:41 42.73260 -78.86607 9835 ft 307 kts 202°
2026-04-23 12:41 42.71207 -78.87555 10406 ft 320 kts 203°
2026-04-23 12:41 42.69034 -78.88575 10747 ft 340 kts 203°
2026-04-23 12:41 42.66756 -78.89652 11326 ft 351 kts 203°
2026-04-23 12:42 42.64429 -78.90749 12102 ft 355 kts 203°
2026-04-23 12:42 42.62083 -78.91855 12927 ft 358 kts 204°
2026-04-23 12:42 42.59722 -78.92967 13762 ft 361 kts 204°
2026-04-23 12:42 42.57339 -78.94091 14489 ft 365 kts 204°
2026-04-23 12:43 42.54924 -78.95230 15138 ft 370 kts 204°
2026-04-23 12:43 42.52480 -78.96384 15789 ft 375 kts 204°
2026-04-23 12:43 42.49996 -78.97555 16450 ft 380 kts 204°
2026-04-23 12:43 42.47488 -78.98737 17106 ft 384 kts 204°
2026-04-23 12:44 42.44946 -78.99932 17779 ft 388 kts 204°
2026-04-23 12:44 42.42382 -79.01136 18411 ft 393 kts 204°
2026-04-23 12:44 42.39785 -79.02356 18953 ft 398 kts 204°
2026-04-23 12:44 42.37157 -79.03589 19502 ft 402 kts 204°
2026-04-23 12:45 42.34497 -79.04836 20062 ft 406 kts 204°
2026-04-23 12:45 42.31817 -79.06091 20586 ft 410 kts 204°
2026-04-23 12:45 42.29115 -79.07358 21147 ft 413 kts 204°
2026-04-23 12:45 42.26390 -79.08631 21697 ft 416 kts 204°
2026-04-23 12:46 42.23638 -79.09915 22218 ft 420 kts 204°
2026-04-23 12:46 42.20895 -79.11192 22744 ft 425 kts 204°
2026-04-23 12:46 42.17997 -79.12324 23279 ft 431 kts 199°
2026-04-23 12:46 42.15114 -79.13309 23754 ft 435 kts 198°
2026-04-23 12:47 42.12152 -79.14261 24162 ft 440 kts 198°
2026-04-23 12:47 42.09157 -79.15189 24552 ft 443 kts 197°
2026-04-23 12:47 42.06140 -79.16109 24964 ft 446 kts 197°
2026-04-23 12:47 42.03095 -79.17033 25353 ft 450 kts 197°
2026-04-23 12:48 42.00032 -79.17965 25750 ft 453 kts 197°
2026-04-23 12:48 41.96953 -79.18905 26149 ft 456 kts 197°
2026-04-23 12:48 41.93843 -79.19857 26523 ft 459 kts 197°
2026-04-23 12:48 41.90717 -79.20815 26899 ft 462 kts 197°
2026-04-23 12:49 41.87579 -79.21777 27280 ft 464 kts 197°
2026-04-23 12:49 41.84427 -79.22743 27658 ft 466 kts 197°
2026-04-23 12:49 41.81252 -79.23716 28019 ft 469 kts 197°
2026-04-23 12:49 41.78059 -79.24693 28357 ft 472 kts 197°
2026-04-23 12:50 41.74849 -79.25675 28691 ft 475 kts 197°
2026-04-23 12:50 41.71614 -79.26663 29017 ft 478 kts 197°
2026-04-23 12:50 41.68365 -79.27654 29342 ft 480 kts 197°
2026-04-23 12:50 41.65108 -79.28646 29738 ft 481 kts 197°
2026-04-23 12:51 41.61834 -79.29642 30054 ft 483 kts 197°
2026-04-23 12:51 41.58548 -79.30641 30314 ft 486 kts 197°
2026-04-23 12:51 41.55239 -79.31647 30596 ft 488 kts 197°
2026-04-23 12:51 41.51934 -79.32648 30946 ft 487 kts 197°
2026-04-23 12:52 41.48628 -79.33648 31272 ft 487 kts 197°
2026-04-23 12:52 41.45333 -79.34644 31697 ft 484 kts 197°
2026-04-23 12:52 41.42049 -79.35635 32047 ft 484 kts 197°
2026-04-23 12:52 41.38761 -79.36628 32336 ft 484 kts 197°
2026-04-23 12:53 41.35517 -79.37608 32625 ft 485 kts 197°
2026-04-23 12:53 41.32228 -79.38600 32925 ft 485 kts 198°
2026-04-23 12:53 41.28940 -79.39591 33221 ft 485 kts 198°
2026-04-23 12:53 41.25656 -79.40580 33545 ft 483 kts 197°
2026-04-23 12:54 41.22377 -79.41565 33877 ft 482 kts 198°
2026-04-23 12:54 41.19105 -79.42547 34139 ft 483 kts 198°
2026-04-23 12:54 41.15824 -79.43530 34324 ft 483 kts 198°
2026-04-23 12:54 41.12552 -79.44509 34644 ft 481 kts 198°
2026-04-23 12:55 41.09294 -79.45483 34898 ft 480 kts 198°
2026-04-23 12:55 41.06032 -79.46460 35048 ft 481 kts 197°
2026-04-23 12:55 40.99496 -79.48413 35093 ft 481 kts 197°
2026-04-23 12:56 40.96226 -79.49389 35199 ft 483 kts 197°
2026-04-23 12:56 40.92935 -79.50372 35287 ft 487 kts 197°
2026-04-23 12:56 40.86286 -79.52352 35503 ft 491 kts 197°
2026-04-23 12:57 40.82948 -79.53342 35728 ft 491 kts 197°
2026-04-23 12:57 40.79620 -79.54327 35932 ft 491 kts 197°
2026-04-23 12:57 40.76288 -79.55314 36060 ft 492 kts 197°
2026-04-23 12:57 40.72939 -79.56305 36074 ft 493 kts 197°
2026-04-23 12:58 40.66253 -79.58280 36076 ft 492 kts 197°
2026-04-23 12:58 40.59579 -79.60247 36081 ft 491 kts 197°
2026-04-23 12:59 40.54035 -79.61879 36085 ft 491 kts 197°
2026-04-23 12:59 40.46283 -79.64157 36096 ft 491 kts 197°
2026-04-23 13:00 40.39608 -79.66114 36105 ft 491 kts 197°
2026-04-23 13:00 40.34019 -79.67749 36110 ft 491 kts 197°
2026-04-23 13:01 40.27354 -79.69696 36092 ft 491 kts 197°
2026-04-23 13:01 40.20726 -79.71628 36091 ft 491 kts 197°
2026-04-23 13:02 40.14053 -79.73569 36092 ft 491 kts 197°
2026-04-23 13:02 40.07389 -79.75503 36086 ft 491 kts 197°
2026-04-23 13:03 40.00717 -79.77436 36080 ft 491 kts 196°
2026-04-23 13:03 39.94054 -79.79362 36094 ft 490 kts 196°
2026-04-23 13:04 39.87398 -79.81280 36111 ft 489 kts 196°
2026-04-23 13:04 39.80767 -79.83190 36123 ft 488 kts 196°
2026-04-23 13:05 39.74141 -79.85096 36131 ft 487 kts 196°
2026-04-23 13:05 39.67524 -79.86995 36143 ft 487 kts 196°
2026-04-23 13:06 39.57597 -79.89835 36133 ft 486 kts 196°
2026-04-23 13:07 39.50997 -79.91719 36130 ft 485 kts 196°
2026-04-23 13:07 39.44406 -79.93597 36119 ft 485 kts 196°
2026-04-23 13:08 39.37814 -79.95472 36116 ft 485 kts 196°
2026-04-23 13:08 39.31227 -79.97342 36124 ft 484 kts 195°
2026-04-23 13:09 39.24660 -79.99201 36125 ft 483 kts 195°
2026-04-23 13:09 39.18094 -80.01059 36127 ft 483 kts 195°
2026-04-23 13:10 39.11576 -80.02899 36114 ft 482 kts 195°
2026-04-23 13:10 39.05022 -80.04743 36134 ft 482 kts 195°
2026-04-23 13:11 38.98472 -80.06584 36140 ft 482 kts 195°
2026-04-23 13:11 38.91926 -80.08435 36124 ft 481 kts 196°
2026-04-23 13:12 38.85465 -80.10590 36145 ft 479 kts 199°
2026-04-23 13:12 38.79058 -80.12896 36145 ft 478 kts 199°
2026-04-23 13:13 38.72649 -80.15190 36144 ft 478 kts 199°
2026-04-23 13:13 38.66239 -80.17448 36123 ft 477 kts 198°
2026-04-23 13:14 38.59833 -80.19685 36133 ft 477 kts 198°
2026-04-23 13:14 38.53439 -80.21916 36135 ft 476 kts 198°
2026-04-23 13:15 38.47040 -80.24142 36135 ft 477 kts 198°
2026-04-23 13:15 38.40647 -80.26361 36133 ft 476 kts 198°
2026-04-23 13:16 38.34300 -80.28559 36141 ft 475 kts 198°
2026-04-23 13:16 38.27878 -80.30782 36129 ft 475 kts 198°
2026-04-23 13:17 38.21537 -80.32973 36139 ft 475 kts 198°
2026-04-23 13:17 38.15159 -80.35174 36139 ft 475 kts 198°
2026-04-23 13:18 38.08777 -80.37373 36136 ft 475 kts 198°
2026-04-23 13:18 38.02396 -80.39565 36134 ft 475 kts 198°
2026-04-23 13:19 37.96017 -80.41752 36179 ft 475 kts 198°
2026-04-23 13:19 37.89637 -80.43935 36184 ft 475 kts 198°
2026-04-23 13:20 37.83251 -80.46119 36182 ft 475 kts 198°
2026-04-23 13:20 37.76874 -80.48294 36179 ft 475 kts 198°
2026-04-23 13:21 37.70503 -80.50464 36170 ft 475 kts 198°
2026-04-23 13:21 37.64612 -80.52466 36154 ft 475 kts 198°
2026-04-23 13:22 37.58230 -80.54632 36105 ft 475 kts 198°
2026-04-23 13:22 37.51843 -80.56796 36390 ft 475 kts 198°
2026-04-23 13:22 37.48656 -80.57874 36614 ft 474 kts 198°
2026-04-23 13:23 37.45474 -80.58949 36835 ft 474 kts 198°
2026-04-23 13:23 37.42291 -80.60025 37001 ft 474 kts 198°
2026-04-23 13:23 37.39106 -80.61099 37121 ft 475 kts 198°
2026-04-23 13:24 37.32717 -80.63253 37130 ft 474 kts 198°
2026-04-23 13:24 37.26351 -80.65394 37176 ft 474 kts 198°
2026-04-23 13:25 37.19987 -80.67532 37183 ft 474 kts 198°
2026-04-23 13:25 37.13618 -80.69668 37185 ft 474 kts 198°
2026-04-23 13:26 37.07124 -80.71094 37184 ft 477 kts 184°
2026-04-23 13:26 37.00482 -80.71187 37176 ft 478 kts 181°
2026-04-23 13:27 36.93831 -80.71012 37171 ft 478 kts 180°
2026-04-23 13:27 36.87225 -80.70808 37183 ft 478 kts 180°
2026-04-23 13:28 36.80582 -80.70630 37195 ft 477 kts 180°
2026-04-23 13:28 36.73944 -80.70471 37194 ft 477 kts 181°
2026-04-23 13:29 36.67313 -80.70318 37181 ft 477 kts 181°
2026-04-23 13:29 36.60683 -80.70165 37171 ft 476 kts 180°
2026-04-23 13:30 36.54058 -80.70012 37125 ft 476 kts 181°
2026-04-23 13:30 36.47445 -80.69858 37126 ft 475 kts 181°
2026-04-23 13:31 36.40823 -80.69704 37128 ft 475 kts 180°
2026-04-23 13:31 36.34210 -80.69552 37119 ft 475 kts 180°
2026-04-23 13:32 36.27596 -80.69399 37129 ft 475 kts 180°
2026-04-23 13:32 36.20984 -80.69246 37129 ft 475 kts 180°
2026-04-23 13:33 36.14374 -80.69094 37119 ft 475 kts 180°
2026-04-23 13:33 36.07761 -80.68942 37117 ft 475 kts 180°
2026-04-23 13:34 36.01155 -80.68790 37115 ft 475 kts 180°
2026-04-23 13:34 35.94553 -80.68639 37112 ft 475 kts 180°
2026-04-23 13:35 35.87950 -80.68488 37116 ft 475 kts 180°
2026-04-23 13:35 35.81348 -80.68338 37150 ft 474 kts 180°
2026-04-23 13:36 35.74748 -80.68188 37151 ft 474 kts 180°
2026-04-23 13:36 35.68188 -80.68038 37154 ft 474 kts 180°
2026-04-23 13:37 35.61588 -80.67888 37159 ft 474 kts 180°
2026-04-23 13:37 35.54990 -80.67739 37178 ft 474 kts 180°
2026-04-23 13:38 35.48389 -80.67589 37191 ft 474 kts 180°
2026-04-23 13:38 35.41790 -80.67440 37193 ft 474 kts 180°
2026-04-23 13:39 35.35192 -80.67291 37193 ft 475 kts 180°
2026-04-23 13:39 35.28584 -80.67142 37190 ft 475 kts 180°
2026-04-23 13:40 35.21974 -80.66994 37181 ft 475 kts 180°
2026-04-23 13:40 35.15367 -80.66845 37157 ft 475 kts 180°
2026-04-23 13:41 35.08760 -80.66697 37161 ft 475 kts 180°
2026-04-23 13:41 35.02146 -80.66549 37162 ft 476 kts 180°
2026-04-23 13:42 34.95529 -80.66401 37164 ft 476 kts 180°
2026-04-23 13:42 34.88911 -80.66253 37163 ft 476 kts 180°
2026-04-23 13:43 34.82292 -80.66106 37166 ft 476 kts 180°
2026-04-23 13:43 34.75670 -80.65959 37165 ft 476 kts 180°
2026-04-23 13:44 34.69050 -80.65812 37165 ft 476 kts 180°
2026-04-23 13:44 34.62497 -80.64787 37152 ft 476 kts 166°
2026-04-23 13:45 34.57201 -80.62985 37158 ft 476 kts 163°
2026-04-23 13:45 34.49811 -80.60168 37150 ft 476 kts 162°
2026-04-23 13:46 34.43543 -80.57749 37167 ft 476 kts 162°
2026-04-23 13:46 34.38253 -80.55733 37162 ft 476 kts 162°
2026-04-23 13:47 34.30906 -80.52966 37167 ft 476 kts 164°
2026-04-23 13:47 34.25448 -80.51954 37165 ft 474 kts 181°
2026-04-23 13:48 34.18997 -80.53022 37163 ft 472 kts 194°
2026-04-23 13:48 34.12616 -80.54882 37159 ft 472 kts 196°
2026-04-23 13:49 34.06263 -80.56868 37146 ft 472 kts 196°
2026-04-23 13:49 33.99901 -80.58820 37146 ft 472 kts 195°
2026-04-23 13:50 33.93524 -80.60735 37146 ft 472 kts 195°
2026-04-23 13:50 33.87144 -80.62633 37145 ft 472 kts 195°
2026-04-23 13:51 33.80772 -80.64526 37149 ft 472 kts 195°
2026-04-23 13:51 33.74398 -80.66418 37162 ft 472 kts 195°
2026-04-23 13:52 33.68025 -80.68308 37170 ft 472 kts 195°
2026-04-23 13:52 33.61650 -80.70196 37175 ft 472 kts 195°
2026-04-23 13:53 33.55278 -80.72079 37179 ft 471 kts 195°
2026-04-23 13:53 33.48914 -80.73957 37182 ft 471 kts 195°
2026-04-23 13:54 33.42547 -80.75830 37183 ft 471 kts 195°
2026-04-23 13:54 33.36183 -80.77699 37183 ft 471 kts 195°
2026-04-23 13:55 33.29818 -80.79566 37183 ft 471 kts 195°
2026-04-23 13:55 33.23453 -80.81430 37183 ft 471 kts 195°
2026-04-23 13:56 33.17130 -80.83279 37183 ft 471 kts 195°
2026-04-23 13:56 33.10766 -80.85137 37183 ft 471 kts 195°
2026-04-23 13:57 33.04397 -80.86994 37188 ft 471 kts 195°
2026-04-23 13:57 32.98031 -80.88847 37189 ft 471 kts 195°
2026-04-23 13:58 32.91664 -80.90698 37188 ft 471 kts 195°
2026-04-23 13:58 32.85294 -80.92547 37187 ft 471 kts 195°
2026-04-23 13:59 32.78928 -80.94391 37188 ft 471 kts 195°
2026-04-23 13:59 32.72554 -80.96236 37188 ft 471 kts 195°
2026-04-23 14:00 32.67264 -80.97765 37187 ft 471 kts 195°
2026-04-23 14:00 32.59815 -80.99915 37191 ft 471 kts 195°
2026-04-23 14:01 32.53414 -81.01591 37190 ft 471 kts 187°
2026-04-23 14:01 32.46874 -81.02043 37189 ft 471 kts 182°
2026-04-23 14:02 32.40321 -81.02181 37187 ft 471 kts 181°
2026-04-23 14:02 32.33770 -81.02259 37187 ft 471 kts 181°
2026-04-23 14:03 32.27214 -81.02353 37187 ft 471 kts 181°
2026-04-23 14:03 32.20717 -81.02462 37189 ft 470 kts 181°
2026-04-23 14:04 32.14180 -81.02578 37187 ft 470 kts 181°
2026-04-23 14:04 32.07650 -81.02695 37157 ft 470 kts 181°
2026-04-23 14:05 32.01106 -81.02811 37157 ft 469 kts 181°
2026-04-23 14:05 31.94588 -81.02962 37157 ft 467 kts 182°
2026-04-23 14:06 31.88094 -81.03145 37159 ft 467 kts 182°
2026-04-23 14:06 31.81595 -81.03330 37164 ft 467 kts 182°
2026-04-23 14:07 31.75095 -81.03510 37165 ft 467 kts 182°
2026-04-23 14:07 31.65365 -81.03775 37176 ft 466 kts 182°
2026-04-23 14:08 31.58884 -81.03955 37181 ft 466 kts 182°
2026-04-23 14:08 31.52415 -81.04300 37181 ft 465 kts 184°
2026-04-23 14:09 31.45952 -81.04743 36986 ft 465 kts 184°
2026-04-23 14:09 31.39485 -81.05184 37279 ft 465 kts 184°
2026-04-23 14:10 31.36258 -81.05397 37481 ft 465 kts 184°
2026-04-23 14:10 31.33030 -81.05607 37677 ft 464 kts 184°
2026-04-23 14:10 31.29808 -81.05815 37866 ft 464 kts 184°
2026-04-23 14:10 31.26624 -81.06019 38041 ft 464 kts 184°
2026-04-23 14:11 31.23358 -81.06189 38177 ft 465 kts 182°
2026-04-23 14:11 31.20114 -81.06288 38188 ft 466 kts 182°
2026-04-23 14:11 31.13644 -81.06399 38196 ft 464 kts 181°
2026-04-23 14:12 31.07236 -81.06498 38196 ft 464 kts 182°
2026-04-23 14:12 31.00785 -81.06618 38195 ft 464 kts 182°
2026-04-23 14:13 30.94340 -81.06749 38197 ft 463 kts 182°
2026-04-23 14:13 30.87895 -81.06883 38197 ft 463 kts 182°
2026-04-23 14:14 30.81457 -81.07017 38199 ft 462 kts 182°
2026-04-23 14:14 30.75029 -81.07149 38197 ft 462 kts 182°
2026-04-23 14:15 30.68596 -81.07281 38199 ft 462 kts 182°
2026-04-23 14:15 30.62162 -81.07427 38196 ft 462 kts 183°
2026-04-23 14:16 30.55749 -81.07759 38198 ft 461 kts 185°
2026-04-23 14:16 30.49341 -81.08176 38198 ft 461 kts 185°
2026-04-23 14:17 30.42936 -81.08586 38198 ft 461 kts 185°
2026-04-23 14:17 30.36576 -81.08976 38200 ft 461 kts 185°
2026-04-23 14:18 30.30163 -81.09360 38196 ft 461 kts 184°
2026-04-23 14:18 30.23758 -81.09743 38195 ft 461 kts 184°
2026-04-23 14:19 30.17348 -81.10126 38200 ft 461 kts 184°
2026-04-23 14:19 30.10947 -81.10509 38201 ft 461 kts 184°
2026-04-23 14:20 30.04543 -81.10891 38205 ft 460 kts 185°
2026-04-23 14:20 29.98145 -81.11273 38203 ft 460 kts 185°
2026-04-23 14:21 29.91750 -81.11654 38209 ft 460 kts 185°
2026-04-23 14:21 29.85353 -81.12035 38207 ft 460 kts 185°
2026-04-23 14:22 29.78949 -81.12279 38205 ft 460 kts 182°
2026-04-23 14:22 29.72556 -81.12304 38200 ft 459 kts 182°
2026-04-23 14:23 29.66172 -81.12329 38195 ft 459 kts 182°
2026-04-23 14:23 29.59826 -81.12308 38193 ft 460 kts 178°
2026-04-23 14:24 29.53528 -81.10773 38197 ft 463 kts 162°
2026-04-23 14:24 29.47501 -81.08280 38201 ft 464 kts 162°
2026-04-23 14:25 29.41440 -81.05748 38184 ft 463 kts 162°
2026-04-23 14:25 29.35375 -81.03231 38183 ft 463 kts 162°
2026-04-23 14:26 29.29313 -81.00725 38183 ft 463 kts 162°
2026-04-23 14:26 29.23242 -80.98221 38181 ft 463 kts 162°
2026-04-23 14:27 29.17179 -80.95722 38194 ft 463 kts 162°
2026-04-23 14:27 29.11121 -80.93230 38193 ft 463 kts 162°
2026-04-23 14:28 29.05054 -80.90737 38199 ft 463 kts 162°
2026-04-23 14:28 28.98993 -80.88249 38192 ft 463 kts 162°
2026-04-23 14:29 28.92920 -80.85761 38175 ft 463 kts 163°
2026-04-23 14:29 28.86846 -80.83277 38183 ft 464 kts 163°
2026-04-23 14:30 28.80773 -80.80796 38161 ft 464 kts 163°
2026-04-23 14:30 28.74742 -80.78336 38158 ft 464 kts 163°
2026-04-23 14:31 28.68666 -80.75860 38048 ft 463 kts 163°
2026-04-23 14:31 28.65625 -80.74623 37619 ft 466 kts 163°
2026-04-23 14:31 28.62559 -80.73376 37137 ft 469 kts 163°
2026-04-23 14:32 28.59483 -80.72125 36678 ft 471 kts 163°
2026-04-23 14:32 28.56389 -80.70868 36228 ft 472 kts 164°
2026-04-23 14:32 28.53293 -80.69611 35787 ft 473 kts 164°
2026-04-23 14:32 28.50191 -80.68352 35376 ft 474 kts 164°
2026-04-23 14:33 28.47085 -80.67092 34946 ft 474 kts 164°
2026-04-23 14:33 28.43977 -80.65833 34518 ft 475 kts 164°
2026-04-23 14:33 28.40865 -80.64572 34094 ft 476 kts 164°
2026-04-23 14:33 28.37738 -80.63307 33613 ft 478 kts 164°
2026-04-23 14:34 28.34605 -80.62040 33081 ft 479 kts 164°
2026-04-23 14:34 28.31466 -80.60771 32560 ft 479 kts 165°
2026-04-23 14:34 28.28327 -80.59502 32041 ft 478 kts 165°
2026-04-23 14:34 28.25201 -80.58239 31555 ft 475 kts 165°
2026-04-23 14:35 28.23151 -80.57411 31231 ft 473 kts 165°
2026-04-23 14:35 28.19025 -80.55746 30585 ft 468 kts 165°
2026-04-23 14:35 28.16999 -80.54929 30267 ft 466 kts 165°
2026-04-23 14:35 28.13954 -80.53703 29739 ft 463 kts 165°
2026-04-23 14:36 28.10929 -80.52485 29204 ft 460 kts 165°
2026-04-23 14:36 28.07923 -80.51275 28723 ft 457 kts 165°
2026-04-23 14:36 28.03979 -80.49688 28090 ft 450 kts 165°
2026-04-23 14:36 28.01995 -80.48891 27749 ft 447 kts 165°
2026-04-23 14:37 27.99075 -80.47718 27304 ft 443 kts 165°
2026-04-23 14:37 27.96186 -80.46558 26853 ft 439 kts 165°
2026-04-23 14:37 27.93322 -80.45409 26413 ft 435 kts 165°
2026-04-23 14:37 27.90484 -80.44271 25977 ft 431 kts 165°
2026-04-23 14:38 27.87670 -80.43141 25558 ft 427 kts 165°
2026-04-23 14:38 27.84883 -80.42024 25125 ft 424 kts 165°
2026-04-23 14:38 27.82115 -80.40914 24700 ft 420 kts 165°
2026-04-23 14:38 27.79374 -80.39815 24295 ft 416 kts 165°
2026-04-23 14:39 27.76654 -80.38726 23891 ft 413 kts 165°
2026-04-23 14:39 27.73956 -80.37646 23433 ft 409 kts 165°
2026-04-23 14:39 27.71318 -80.36591 22946 ft 406 kts 165°
2026-04-23 14:39 27.68670 -80.35532 22469 ft 402 kts 165°
2026-04-23 14:40 27.66055 -80.34420 22011 ft 401 kts 161°
2026-04-23 14:40 27.63521 -80.33138 21554 ft 398 kts 159°
2026-04-23 14:40 27.61019 -80.31816 21105 ft 395 kts 158°
2026-04-23 14:40 27.58546 -80.30503 20655 ft 391 kts 158°
2026-04-23 14:41 27.56093 -80.29202 20219 ft 388 kts 158°
2026-04-23 14:41 27.53661 -80.27916 19788 ft 385 kts 158°
2026-04-23 14:41 27.51245 -80.26639 19359 ft 381 kts 158°
2026-04-23 14:41 27.48858 -80.25380 19008 ft 376 kts 158°
2026-04-23 14:42 27.46502 -80.24137 18668 ft 371 kts 158°
2026-04-23 14:42 27.44177 -80.22911 18303 ft 367 kts 158°
2026-04-23 14:42 27.41880 -80.21702 17903 ft 362 kts 158°
2026-04-23 14:42 27.39614 -80.20510 17507 ft 357 kts 158°
2026-04-23 14:43 27.37372 -80.19331 17128 ft 354 kts 158°
2026-04-23 14:43 27.35153 -80.18164 16728 ft 351 kts 158°
2026-04-23 14:43 27.32956 -80.17010 16361 ft 347 kts 158°
2026-04-23 14:43 27.30785 -80.15869 15994 ft 343 kts 158°
2026-04-23 14:44 27.28636 -80.14741 15618 ft 339 kts 158°
2026-04-23 14:44 27.26513 -80.13628 15259 ft 335 kts 158°
2026-04-23 14:44 27.24391 -80.12563 14900 ft 331 kts 159°
2026-04-23 14:44 27.22285 -80.11537 14545 ft 328 kts 159°
2026-04-23 14:45 27.20201 -80.10528 14195 ft 325 kts 159°
2026-04-23 14:45 27.18168 -80.09544 13811 ft 320 kts 159°
2026-04-23 14:45 27.16142 -80.08563 13344 ft 315 kts 159°
2026-04-23 14:45 27.14134 -80.07590 12847 ft 312 kts 158°
2026-04-23 14:46 27.12161 -80.06619 12424 ft 307 kts 158°
2026-04-23 14:46 27.10205 -80.05652 11866 ft 308 kts 158°
2026-04-23 14:46 27.08263 -80.04691 11434 ft 304 kts 158°
2026-04-23 14:46 27.06335 -80.03737 10986 ft 301 kts 157°
2026-04-23 14:47 27.04439 -80.02799 10609 ft 295 kts 157°
2026-04-23 14:47 27.02567 -80.01874 10141 ft 294 kts 156°
2026-04-23 14:47 27.00704 -80.00954 9696 ft 290 kts 156°
2026-04-23 14:47 26.98865 -80.00045 9213 ft 287 kts 156°
2026-04-23 14:48 26.97026 -79.99219 8744 ft 283 kts 164°
2026-04-23 14:48 26.95086 -79.99057 8279 ft 280 kts 189°
2026-04-23 14:48 26.93301 -79.99879 7801 ft 278 kts 212°
2026-04-23 14:48 26.91736 -80.01140 7319 ft 277 kts 216°
2026-04-23 14:49 26.90221 -80.02470 6843 ft 275 kts 217°
2026-04-23 14:49 26.88720 -80.03793 6379 ft 274 kts 216°
2026-04-23 14:49 26.87225 -80.05099 5897 ft 271 kts 217°
2026-04-23 14:49 26.85737 -80.06391 5404 ft 271 kts 215°
2026-04-23 14:50 26.84249 -80.07684 4934 ft 272 kts 216°
2026-04-23 14:50 26.82753 -80.08992 4409 ft 273 kts 217°
2026-04-23 14:50 26.81501 -80.10578 3986 ft 272 kts 236°
2026-04-23 14:50 26.80540 -80.12365 3705 ft 263 kts 235°
2026-04-23 14:51 26.79567 -80.14047 3508 ft 252 kts 235°
2026-04-23 14:51 26.78677 -80.15650 3335 ft 240 kts 236°
2026-04-23 14:51 26.77826 -80.17204 3140 ft 220 kts 237°
2026-04-23 14:51 26.77064 -80.18623 2809 ft 206 kts 233°
2026-04-23 14:52 26.76155 -80.19677 2677 ft 172 kts 204°
2026-04-23 14:52 26.75111 -80.19910 2393 ft 150 kts 164°
2026-04-23 14:52 26.74272 -80.19339 2017 ft 143 kts 123°
2026-04-23 14:52 26.73761 -80.18372 1805 ft 144 kts 115°
2026-04-23 14:53 26.73327 -80.17385 1638 ft 140 kts 112°
2026-04-23 14:53 26.72976 -80.16400 1485 ft 133 kts 109°
2026-04-23 14:53 26.72695 -80.15443 1312 ft 125 kts 107°
2026-04-23 14:53 26.72426 -80.14537 1033 ft 121 kts 112°
2026-04-23 14:54 26.72046 -80.13698 813 ft 123 kts 123°
2026-04-23 14:54 26.71494 -80.12949 653 ft 124 kts 131°
2026-04-23 14:54 26.70878 -80.12263 500 ft 126 kts 134°
2026-04-23 14:54 26.70243 -80.11574 330 ft 128 kts 131°
2026-04-23 14:55 26.69612 -80.10872 180 ft 129 kts 132°
2026-04-23 14:55 26.68992 -80.10189 30 ft 119 kts 130°
2026-04-23 14:55 26.68504 -80.09650 28 ft 59 kts 135°
2026-04-23 14:55 26.68367 -80.09428 29 ft 25 kts 92°
2026-04-23 14:56 26.68363 -80.09238 29 ft 24 kts 93°
2026-04-23 14:56 26.68354 -80.09058 29 ft 23 kts 93°
2026-04-23 14:56 26.68347 -80.08888 29 ft 22 kts 93°
2026-04-23 14:56 26.68352 -80.08732 29 ft 16 kts 57°
2026-04-23 14:57 26.68431 -80.08739 29 ft 8 kts 307°
2026-04-23 14:57 26.68461 -80.08772 29 ft 5 kts 340°
2026-04-23 14:57 26.68498 -80.08770 29 ft 6 kts
2026-04-23 14:57 26.68551 -80.08767 29 ft 8 kts
2026-04-23 14:58 26.68609 -80.08785 29 ft 8 kts 319°
2026-04-23 14:58 26.68613 -80.08843 29 ft 8 kts 257°
2026-04-23 14:58 26.68604 -80.08884 29 ft 2 kts 257°
2026-04-23 14:58 26.68604 -80.08887 29 ft 0 kts 257°